{"data":{"norad_id":44538,"epoch":"2026-09-20T03:58:06.849984Z","epoch_age_seconds":61140,"freshness":"FRESH","line1":"1 44538U 19060E   26263.16535706  .00030569  00000+0  45031-3 0  9990","line2":"2 44538  97.5474  57.8004 0005748 313.1360  46.9412 15.55353961390817","mean_motion":15.55353961,"eccentricity":0.0005748,"inclination_deg":97.5474,"raan_deg":57.8004,"arg_perigee_deg":313.136,"mean_anomaly_deg":46.9412,"bstar":0.00045031,"rev_number":39081,"period_min":92.583427059533,"perigee_km":397.22718439681,"apogee_km":405.02062273155,"semimajor_km":6779.2609035642,"source":"CELESTRAK","updated_at":"2026-09-20T09:00:14.533305Z"}}